This demonstration page uses our WeatherBlox Daily Observations layout. Learn more.

Left ArrowRight Arrow

39.08367, -84.50855

Hourly Observations for December 12, 2020

Temp ( °F °C ) Dew Point ( °F °C ) Humidity (%) Winds ( mph kmh ) Pressure ( in mb ) Visibility ( mi km ) Precip ( " mm )
12:53 am 00:53 Clear 45 7.2 39 3.9 80 80 WSW 3 6 29.93 1013 10 16.0934 0 0
1:53 am 01:53 Mostly Clear 48 8.9 40 4.4 74 74 W 3 6 29.9 1013 10 16.0934 0 0
2:53 am 02:53 Mostly Cloudy 50 10 41 5 71 71 SSW 6 9 29.87 1012 10 16.0934 0 0
3:53 am 03:53 Cloudy with Light Rain 53 11.7 42 5.6 66 66 SSW 7 11 29.87 1011 10 16.0934 0.001 0.001
4:53 am 04:53 Cloudy 54 12.2 43 6.1 67 67 S 8 13 29.84 1010 10 16.0934 0.001 0.001
5:53 am 05:53 Cloudy 54 12.2 44 6.7 69 69 S 7 11 29.82 1010 10 16.0934 0.001 0.001
6:53 am 06:53 Cloudy 54 12.2 44 6.7 69 69 S 10 17 29.82 1010 10 16.0934 0.001 0.001
7:53 am 07:53 Cloudy 55 12.8 45 7.2 69 69 S 12 19 29.8 1009 10 16.0934 0.001 0.001
8:53 am 08:53 Cloudy with Light Rain 54 12.2 49 9.4 83 83 S 10 17 29.79 1009 4 6.43736 0.05 1.27
9:53 am 09:53 Cloudy with Light Rain 54 12.2 51 10.6 90 90 S 14 22 29.81 1010 7 11.26538 0.01 0.254
10:53 am 10:53 Cloudy 56 13.3 52 11.1 87 87 S 14 22 29.81 1009 10 16.0934 0.001 0.001
11:53 am 11:53 Cloudy 59 15 54 12.2 83 83 S 13 20 29.78 1008 10 16.0934 0 0
12:53 pm 12:53 Mostly Cloudy 61 16.1 52 11.1 72 72 SSW 18 30 29.75 1008 10 16.0934 0 0
1:53 pm 13:53 Mostly Sunny 60 15.6 53 11.7 78 78 SW 12 19 29.75 1007 10 16.0934 0.03 0.762
2:53 pm 14:53 Partly Cloudy 61 16.1 49 9.4 65 65 WSW 16 26 29.73 1007 10 16.0934 0 0
3:53 pm 15:53 Partly Cloudy 62 16.7 45 7.2 54 54 WSW 16 26 29.75 1007 10 16.0934 0 0
4:53 pm 16:53 Mostly Sunny 59 15 44 6.7 58 58 WNW 17 28 29.78 1009 10 16.0934 0 0
5:53 pm 17:53 Clear 52 11.1 42 5.6 69 69 W 16 26 29.84 1011 10 16.0934 0 0
6:53 pm 18:53 Clear 49 9.4 39 3.9 69 69 W 16 26 29.88 1012 10 16.0934 0 0
7:53 pm 19:53 Clear 47 8.3 38 3.3 71 71 W 13 20 29.92 1013 10 16.0934 0 0
8:53 pm 20:53 Mostly Clear 45 7.2 37 2.8 74 74 W 10 17 29.95 1014 10 16.0934 0 0
9:53 pm 21:53 Clear 44 6.7 34 1.1 68 68 W 13 20 29.98 1015 10 16.0934 0 0
10:53 pm 22:53 Cloudy 45 7.2 35 1.7 68 68 WSW 9 15 29.99 1016 10 16.0934 0 0
11:53 pm 23:53 Cloudy 45 7.2 36 2.2 71 71 WSW 7 11 30.01 1016 10 16.0934 0 0

Powered by AerisWeather